RYR8YU LFML-EBCI

Flight info

Callsign RYR8YU
Flight time 1h 24m
Altitude 36000
Route ETREK DCT MADOT DCT MOPEM DCT CACHI DCT AVLON DCT OKRIX DCT BRY DCT CLM DCT KOPOR DCT SOMIL DCT BELDI DCT VEKIN Z173 ARVOL
Aircraft B738/M-SDE3FGILRWY/SB1

Departure

Time 2026-04-30 08:33
Airport Marseille Provence Airport (LFML)

Arrival

Time 2026-04-30 09:57
Airport Brussels South Charleroi Airport (EBCI)
Time Latitude Longitude Altitude Speed Heading
2026-04-30 08:01 43.44213 5.21812 31 ft 0 kts 89°
2026-04-30 08:25 43.44211 5.21819 31 ft 2 kts 105°
2026-04-30 08:25 43.44189 5.21830 31 ft 6 kts 180°
2026-04-30 08:26 43.44137 5.21818 30 ft 8 kts 193°
2026-04-30 08:26 43.44084 5.21771 30 ft 11 kts 223°
2026-04-30 08:26 43.44019 5.21688 31 ft 14 kts 222°
2026-04-30 08:26 43.43946 5.21594 32 ft 14 kts 223°
2026-04-30 08:27 43.43931 5.21476 30 ft 14 kts 302°
2026-04-30 08:27 43.44003 5.21368 29 ft 17 kts 314°
2026-04-30 08:27 43.44092 5.21241 28 ft 20 kts 314°
2026-04-30 08:27 43.44192 5.21100 21 ft 22 kts 314°
2026-04-30 08:28 43.44289 5.20932 18 ft 23 kts 297°
2026-04-30 08:28 43.44383 5.20757 17 ft 23 kts 314°
2026-04-30 08:28 43.44489 5.20605 17 ft 22 kts 314°
2026-04-30 08:28 43.44594 5.20456 18 ft 21 kts 315°
2026-04-30 08:29 43.44694 5.20313 16 ft 21 kts 314°
2026-04-30 08:29 43.44797 5.20168 16 ft 21 kts 314°
2026-04-30 08:29 43.44895 5.20028 18 ft 16 kts 314°
2026-04-30 08:29 43.44940 5.19964 16 ft 2 kts 315°
2026-04-30 08:31 43.44946 5.19955 16 ft 4 kts 315°
2026-04-30 08:31 43.44976 5.19914 16 ft 8 kts 313°
2026-04-30 08:31 43.44973 5.19837 17 ft 9 kts 242°
2026-04-30 08:31 43.44924 5.19777 17 ft 10 kts 211°
2026-04-30 08:32 43.44866 5.19801 17 ft 10 kts 132°
2026-04-30 08:32 43.44743 5.19976 16 ft 57 kts 134°
2026-04-30 08:32 43.44299 5.20607 18 ft 126 kts 134°
2026-04-30 08:32 43.43563 5.21635 184 ft 166 kts 136°
2026-04-30 08:33 43.42736 5.22808 849 ft 174 kts 132°
2026-04-30 08:33 43.42118 5.24216 1684 ft 176 kts 110°
2026-04-30 08:33 43.41982 5.25862 2524 ft 172 kts 80°
2026-04-30 08:33 43.42232 5.27491 3293 ft 178 kts 67°
2026-04-30 08:34 43.43099 5.28804 3697 ft 202 kts 26°
2026-04-30 08:34 43.44489 5.29463 3902 ft 228 kts
2026-04-30 08:34 43.46112 5.29029 4191 ft 252 kts 342°
2026-04-30 08:34 43.47855 5.28223 4713 ft 268 kts 342°
2026-04-30 08:35 43.49612 5.27398 5584 ft 270 kts 342°
2026-04-30 08:35 43.51421 5.26558 6348 ft 276 kts 342°
2026-04-30 08:35 43.53263 5.25715 7191 ft 279 kts 342°
2026-04-30 08:35 43.55105 5.24885 8006 ft 282 kts 342°
2026-04-30 08:36 43.56991 5.24039 8779 ft 286 kts 342°
2026-04-30 08:36 43.58877 5.23192 9522 ft 290 kts 342°
2026-04-30 08:36 43.60804 5.22328 10295 ft 292 kts 342°
2026-04-30 08:36 43.62803 5.21430 10657 ft 312 kts 342°
2026-04-30 08:37 43.64920 5.20480 10986 ft 329 kts 342°
2026-04-30 08:37 43.67130 5.19485 11655 ft 335 kts 342°
2026-04-30 08:37 43.69337 5.18489 12576 ft 333 kts 341°
2026-04-30 08:37 43.71539 5.17494 13268 ft 338 kts 340°
2026-04-30 08:38 43.73806 5.16435 13946 ft 345 kts 340°
2026-04-30 08:38 43.76069 5.15359 14701 ft 347 kts 340°
2026-04-30 08:38 43.78369 5.14263 15498 ft 350 kts 339°
2026-04-30 08:38 43.80669 5.13168 16251 ft 353 kts 340°
2026-04-30 08:39 43.83019 5.12052 16986 ft 356 kts 340°
2026-04-30 08:39 43.85379 5.10932 17677 ft 360 kts 339°
2026-04-30 08:39 43.87736 5.09813 18359 ft 363 kts 340°
2026-04-30 08:39 43.90199 5.08876 19028 ft 368 kts 346°
2026-04-30 08:40 43.92747 5.08237 19665 ft 372 kts 349°
2026-04-30 08:40 43.95335 5.07701 20302 ft 376 kts 350°
2026-04-30 08:40 43.97915 5.07186 20896 ft 380 kts 349°
2026-04-30 08:40 44.00548 5.06646 21510 ft 383 kts 349°
2026-04-30 08:41 44.03175 5.06087 22078 ft 386 kts 349°
2026-04-30 08:41 44.05848 5.05499 22634 ft 389 kts 349°
2026-04-30 08:41 44.08536 5.04896 23185 ft 392 kts 349°
2026-04-30 08:41 44.11254 5.04278 23717 ft 396 kts 349°
2026-04-30 08:42 44.13950 5.03661 24218 ft 398 kts 349°
2026-04-30 08:42 44.16719 5.03025 24718 ft 402 kts 349°
2026-04-30 08:42 44.19487 5.02386 25220 ft 404 kts 349°
2026-04-30 08:42 44.22251 5.01749 25706 ft 407 kts 349°
2026-04-30 08:43 44.25058 5.01100 26189 ft 409 kts 349°
2026-04-30 08:43 44.27879 5.00448 26640 ft 411 kts 348°
2026-04-30 08:43 44.30679 4.99800 27067 ft 413 kts 348°
2026-04-30 08:43 44.32576 4.99360 27353 ft 415 kts 348°
2026-04-30 08:44 44.36380 4.98479 27935 ft 418 kts 348°
2026-04-30 08:44 44.39261 4.97810 28340 ft 420 kts 348°
2026-04-30 08:44 44.41190 4.97363 28594 ft 421 kts 348°
2026-04-30 08:44 44.45049 4.96467 29101 ft 424 kts 348°
2026-04-30 08:45 44.46984 4.96016 29357 ft 425 kts 348°
2026-04-30 08:45 44.49919 4.95333 29720 ft 427 kts 348°
2026-04-30 08:45 44.53827 4.94421 30174 ft 429 kts 348°
2026-04-30 08:45 44.55793 4.93962 30401 ft 431 kts 348°
2026-04-30 08:46 44.58764 4.93268 30727 ft 432 kts 348°
2026-04-30 08:46 44.61756 4.92569 31147 ft 431 kts 348°
2026-04-30 08:46 44.64698 4.91882 31626 ft 428 kts 347°
2026-04-30 08:46 44.67637 4.91194 32071 ft 426 kts 347°
2026-04-30 08:47 44.70537 4.90514 32414 ft 427 kts 347°
2026-04-30 08:47 44.73454 4.89687 32708 ft 425 kts 340°
2026-04-30 08:47 44.76227 4.88269 33090 ft 422 kts 335°
2026-04-30 08:47 44.78901 4.86717 33497 ft 419 kts 334°
2026-04-30 08:48 44.81584 4.85119 33844 ft 419 kts 334°
2026-04-30 08:48 44.84291 4.83517 34160 ft 419 kts 335°
2026-04-30 08:48 44.86962 4.81962 34483 ft 418 kts 335°
2026-04-30 08:48 44.89671 4.80408 34781 ft 418 kts 335°
2026-04-30 08:49 44.92376 4.78869 35042 ft 419 kts 335°
2026-04-30 08:49 44.95081 4.77337 35312 ft 419 kts 335°
2026-04-30 08:49 44.97752 4.75825 35614 ft 418 kts 335°
2026-04-30 08:49 45.00474 4.74284 35857 ft 418 kts 335°
2026-04-30 08:50 45.03154 4.72764 36065 ft 419 kts 336°
2026-04-30 08:50 45.08596 4.69670 36120 ft 422 kts 336°
2026-04-30 08:51 45.14009 4.66588 36119 ft 418 kts 336°
2026-04-30 08:51 45.19422 4.63619 36118 ft 417 kts 343°
2026-04-30 08:52 45.25137 4.62177 36128 ft 418 kts 349°
2026-04-30 08:52 45.30878 4.61022 36128 ft 418 kts 349°
2026-04-30 08:53 45.36649 4.59778 36134 ft 418 kts 349°
2026-04-30 08:53 45.42406 4.58472 36138 ft 420 kts 348°
2026-04-30 08:54 45.48177 4.57143 36130 ft 422 kts 348°
2026-04-30 08:54 45.53992 4.55801 36128 ft 424 kts 348°
2026-04-30 08:55 45.59817 4.54455 36129 ft 426 kts 349°
2026-04-30 08:55 45.65665 4.53102 36126 ft 427 kts 349°
2026-04-30 08:56 45.71548 4.51739 36139 ft 427 kts 349°
2026-04-30 08:56 45.77413 4.50376 36128 ft 427 kts 349°
2026-04-30 08:57 45.83259 4.49016 36121 ft 427 kts 349°
2026-04-30 08:57 45.89144 4.47644 36129 ft 426 kts 349°
2026-04-30 08:58 45.94964 4.46283 36130 ft 425 kts 349°
2026-04-30 08:58 46.00780 4.44921 36129 ft 424 kts 349°
2026-04-30 08:59 46.06627 4.43548 36125 ft 423 kts 349°
2026-04-30 08:59 46.12429 4.42182 36129 ft 423 kts 349°
2026-04-30 09:00 46.18223 4.40816 36127 ft 423 kts 349°
2026-04-30 09:00 46.24041 4.39441 36138 ft 422 kts 349°
2026-04-30 09:01 46.29804 4.38003 36134 ft 422 kts 347°
2026-04-30 09:01 46.35510 4.36055 36132 ft 422 kts 345°
2026-04-30 09:02 46.44055 4.32947 36130 ft 422 kts 345°
2026-04-30 09:02 46.49735 4.30689 36129 ft 422 kts 339°
2026-04-30 09:03 46.55163 4.27502 36128 ft 422 kts 336°
2026-04-30 09:03 46.60552 4.24153 36125 ft 422 kts 336°
2026-04-30 09:04 46.65991 4.20858 36136 ft 423 kts 337°
2026-04-30 09:04 46.71433 4.17615 36124 ft 423 kts 337°
2026-04-30 09:05 46.76901 4.14364 36127 ft 424 kts 338°
2026-04-30 09:05 46.82377 4.11100 36126 ft 426 kts 338°
2026-04-30 09:06 46.87873 4.07816 36131 ft 427 kts 338°
2026-04-30 09:06 46.93367 4.04524 36133 ft 428 kts 338°
2026-04-30 09:07 46.98872 4.01218 36132 ft 430 kts 338°
2026-04-30 09:07 47.04406 3.97890 36120 ft 431 kts 338°
2026-04-30 09:08 47.09966 3.94557 36126 ft 432 kts 339°
2026-04-30 09:08 47.15553 3.91206 36133 ft 433 kts 339°
2026-04-30 09:09 47.21119 3.87858 36121 ft 434 kts 339°
2026-04-30 09:09 47.26748 3.84462 36118 ft 435 kts 339°
2026-04-30 09:10 47.32323 3.81091 36132 ft 436 kts 339°
2026-04-30 09:10 47.37953 3.77679 36134 ft 437 kts 339°
2026-04-30 09:11 47.43565 3.74270 36132 ft 437 kts 339°
2026-04-30 09:11 47.49185 3.70848 36144 ft 437 kts 339°
2026-04-30 09:12 47.54793 3.67427 36148 ft 437 kts 339°
2026-04-30 09:12 47.60435 3.63975 36148 ft 436 kts 339°
2026-04-30 09:13 47.66025 3.60550 36145 ft 436 kts 339°
2026-04-30 09:13 47.71609 3.57118 36148 ft 436 kts 339°
2026-04-30 09:14 47.77232 3.53655 36156 ft 435 kts 339°
2026-04-30 09:14 47.82816 3.50207 36153 ft 435 kts 339°
2026-04-30 09:15 47.88380 3.46763 36166 ft 434 kts 339°
2026-04-30 09:15 47.93966 3.43299 36164 ft 434 kts 339°
2026-04-30 09:16 47.99530 3.39840 36170 ft 434 kts 339°
2026-04-30 09:16 48.05082 3.36382 36169 ft 434 kts 339°
2026-04-30 09:17 48.10674 3.32888 36171 ft 434 kts 339°
2026-04-30 09:17 48.16230 3.29409 36174 ft 435 kts 339°
2026-04-30 09:18 48.21806 3.25909 36176 ft 436 kts 339°
2026-04-30 09:18 48.27412 3.22382 36179 ft 437 kts 339°
2026-04-30 09:19 48.33052 3.18825 36176 ft 438 kts 339°
2026-04-30 09:19 48.38676 3.15270 36176 ft 439 kts 339°
2026-04-30 09:20 48.44282 3.11719 36189 ft 439 kts 339°
2026-04-30 09:20 48.49908 3.08146 36185 ft 440 kts 339°
2026-04-30 09:21 48.55541 3.04560 36191 ft 440 kts 339°
2026-04-30 09:21 48.61197 3.00949 36185 ft 440 kts 339°
2026-04-30 09:22 48.66825 2.97347 36188 ft 440 kts 339°
2026-04-30 09:22 48.72482 2.93717 36188 ft 440 kts 339°
2026-04-30 09:23 48.77457 2.90521 36178 ft 440 kts 339°
2026-04-30 09:23 48.83114 2.86876 36185 ft 439 kts 339°
2026-04-30 09:24 48.88717 2.83258 36191 ft 439 kts 339°
2026-04-30 09:24 48.94353 2.79609 36183 ft 439 kts 339°
2026-04-30 09:25 48.99964 2.75968 36188 ft 439 kts 339°
2026-04-30 09:25 49.05567 2.72322 36184 ft 439 kts 339°
2026-04-30 09:26 49.11213 2.68638 36183 ft 439 kts 339°
2026-04-30 09:26 49.16812 2.64977 36188 ft 439 kts 339°
2026-04-30 09:27 49.22439 2.61288 36201 ft 440 kts 339°
2026-04-30 09:27 49.28059 2.57594 36188 ft 440 kts 339°
2026-04-30 09:28 49.33690 2.53884 36200 ft 440 kts 339°
2026-04-30 09:28 49.36483 2.52039 36061 ft 433 kts 339°
2026-04-30 09:28 49.39240 2.50215 35578 ft 431 kts 339°
2026-04-30 09:29 49.41981 2.48403 34877 ft 436 kts 339°
2026-04-30 09:29 49.44813 2.46529 34242 ft 439 kts 339°
2026-04-30 09:29 49.47567 2.44701 34001 ft 432 kts 340°
2026-04-30 09:29 49.50289 2.42891 33709 ft 426 kts 340°
2026-04-30 09:30 49.53066 2.41268 33279 ft 421 kts 346°
2026-04-30 09:30 49.55881 2.39972 32826 ft 420 kts 348°
2026-04-30 09:30 49.58657 2.38769 32386 ft 418 kts 348°
2026-04-30 09:30 49.61464 2.37552 31982 ft 416 kts 348°
2026-04-30 09:31 49.64242 2.36322 31611 ft 413 kts 347°
2026-04-30 09:31 49.66989 2.35083 31191 ft 412 kts 347°
2026-04-30 09:31 49.69734 2.33833 30782 ft 410 kts 347°
2026-04-30 09:31 49.71548 2.33005 30530 ft 409 kts 347°
2026-04-30 09:32 49.74329 2.32141 30076 ft 400 kts
2026-04-30 09:32 49.77031 2.32706 29670 ft 386 kts 22°
2026-04-30 09:32 49.79412 2.34339 29255 ft 375 kts 38°
2026-04-30 09:32 49.81423 2.36851 28824 ft 367 kts 47°
2026-04-30 09:33 49.83247 2.39598 28441 ft 364 kts 49°
2026-04-30 09:33 49.85037 2.42383 28026 ft 362 kts 49°
2026-04-30 09:33 49.86796 2.45115 27622 ft 360 kts 49°
2026-04-30 09:33 49.88583 2.47860 27220 ft 358 kts 49°
2026-04-30 09:34 49.90341 2.50538 26826 ft 356 kts 48°
2026-04-30 09:34 49.92116 2.53227 26454 ft 354 kts 48°
2026-04-30 09:34 49.93598 2.55471 26129 ft 352 kts 48°
2026-04-30 09:34 49.95329 2.58094 25738 ft 350 kts 48°
2026-04-30 09:35 49.97067 2.60732 25353 ft 348 kts 48°
2026-04-30 09:35 49.98783 2.63340 25003 ft 346 kts 48°
2026-04-30 09:35 50.00506 2.65961 24630 ft 343 kts 48°
2026-04-30 09:35 50.02217 2.68567 24241 ft 342 kts 48°
2026-04-30 09:36 50.03896 2.71129 23832 ft 341 kts 48°
2026-04-30 09:36 50.05586 2.73708 23479 ft 339 kts 48°
2026-04-30 09:36 50.07268 2.76277 23135 ft 336 kts 47°
2026-04-30 09:36 50.08935 2.78828 22748 ft 335 kts 47°
2026-04-30 09:37 50.10570 2.81332 22367 ft 334 kts 47°
2026-04-30 09:37 50.12223 2.83867 22019 ft 331 kts 47°
2026-04-30 09:37 50.13861 2.86380 21663 ft 329 kts 47°
2026-04-30 09:37 50.15495 2.88890 21307 ft 327 kts 47°
2026-04-30 09:38 50.17113 2.91377 20981 ft 324 kts 47°
2026-04-30 09:38 50.18694 2.93811 20723 ft 321 kts 47°
2026-04-30 09:38 50.20291 2.96272 20326 ft 321 kts 47°
2026-04-30 09:38 50.21864 2.98699 19940 ft 321 kts 47°
2026-04-30 09:39 50.23446 3.01144 19597 ft 319 kts 47°
2026-04-30 09:39 50.25024 3.03581 19278 ft 317 kts 47°
2026-04-30 09:39 50.26595 3.06011 18929 ft 316 kts 47°
2026-04-30 09:39 50.28138 3.08400 18589 ft 314 kts 47°
2026-04-30 09:40 50.29686 3.10798 18255 ft 312 kts 47°
2026-04-30 09:40 50.31234 3.13201 17910 ft 311 kts 47°
2026-04-30 09:40 50.32770 3.15587 17590 ft 309 kts 47°
2026-04-30 09:40 50.34273 3.17923 17256 ft 308 kts 47°
2026-04-30 09:41 50.35786 3.20276 16923 ft 306 kts 47°
2026-04-30 09:41 50.37289 3.22618 16587 ft 305 kts 48°
2026-04-30 09:41 50.38795 3.24965 16236 ft 304 kts 47°
2026-04-30 09:41 50.40296 3.27306 15918 ft 303 kts 47°
2026-04-30 09:42 50.41773 3.29609 15589 ft 301 kts 48°
2026-04-30 09:42 50.43260 3.31930 15264 ft 300 kts 48°
2026-04-30 09:42 50.44739 3.34241 14954 ft 298 kts 48°
2026-04-30 09:42 50.46190 3.36513 14639 ft 297 kts 48°
2026-04-30 09:43 50.47651 3.38804 14320 ft 295 kts 48°
2026-04-30 09:43 50.49108 3.41087 14014 ft 294 kts 48°
2026-04-30 09:43 50.50541 3.43334 13712 ft 292 kts 48°
2026-04-30 09:43 50.51972 3.45583 13381 ft 291 kts 48°
2026-04-30 09:44 50.53410 3.47841 13050 ft 290 kts 48°
2026-04-30 09:44 50.54628 3.50272 12709 ft 284 kts 65°
2026-04-30 09:44 50.55325 3.53172 12438 ft 280 kts 75°
2026-04-30 09:44 50.55885 3.56116 12118 ft 279 kts 75°
2026-04-30 09:45 50.56418 3.59019 11804 ft 278 kts 76°
2026-04-30 09:45 50.56952 3.61945 11494 ft 277 kts 76°
2026-04-30 09:45 50.57483 3.64823 11191 ft 274 kts 76°
2026-04-30 09:45 50.58015 3.67689 10741 ft 272 kts 76°
2026-04-30 09:46 50.58548 3.70554 10244 ft 271 kts 76°
2026-04-30 09:46 50.59082 3.73415 9759 ft 271 kts 76°
2026-04-30 09:46 50.59609 3.76236 9394 ft 271 kts 76°
2026-04-30 09:46 50.60140 3.79078 9146 ft 268 kts 76°
2026-04-30 09:47 50.60665 3.81902 8849 ft 267 kts 76°
2026-04-30 09:47 50.61186 3.84688 8538 ft 266 kts 76°
2026-04-30 09:47 50.61706 3.87477 8289 ft 264 kts 76°
2026-04-30 09:47 50.62222 3.90220 8042 ft 262 kts 76°
2026-04-30 09:48 50.62736 3.92963 7739 ft 261 kts 76°
2026-04-30 09:48 50.62899 3.95743 7351 ft 253 kts 102°
2026-04-30 09:48 50.62189 3.98231 6872 ft 253 kts 123°
2026-04-30 09:48 50.60981 4.00232 6598 ft 252 kts 139°
2026-04-30 09:49 50.59558 4.01834 6356 ft 251 kts 142°
2026-04-30 09:49 50.58096 4.03343 6099 ft 249 kts 143°
2026-04-30 09:49 50.56662 4.04814 5872 ft 247 kts 143°
2026-04-30 09:49 50.55222 4.06306 5604 ft 245 kts 143°
2026-04-30 09:50 50.53798 4.07788 5376 ft 243 kts 143°
2026-04-30 09:50 50.52400 4.09252 5118 ft 243 kts 143°
2026-04-30 09:50 50.50997 4.10724 4861 ft 241 kts 142°
2026-04-30 09:50 50.49602 4.12190 4618 ft 239 kts 143°
2026-04-30 09:51 50.48238 4.13622 4396 ft 240 kts 142°
2026-04-30 09:51 50.46862 4.15076 4108 ft 232 kts 143°
2026-04-30 09:51 50.45552 4.16448 3853 ft 225 kts 142°
2026-04-30 09:51 50.44244 4.17746 3619 ft 220 kts 147°
2026-04-30 09:52 50.42870 4.18764 3357 ft 215 kts 151°
2026-04-30 09:52 50.41530 4.19678 3190 ft 208 kts 152°
2026-04-30 09:52 50.40460 4.21054 2978 ft 196 kts 115°
2026-04-30 09:52 50.40324 4.23029 2985 ft 176 kts 86°
2026-04-30 09:53 50.40391 4.24863 2994 ft 163 kts 87°
2026-04-30 09:53 50.40733 4.26475 2973 ft 156 kts 72°
2026-04-30 09:53 50.41073 4.28091 2822 ft 155 kts 77°
2026-04-30 09:53 50.41459 4.29676 2656 ft 158 kts 70°
2026-04-30 09:54 50.41940 4.31271 2397 ft 162 kts 63°
2026-04-30 09:54 50.42420 4.32863 2142 ft 157 kts 69°
2026-04-30 09:54 50.42822 4.34330 1992 ft 140 kts 67°
2026-04-30 09:54 50.43213 4.35697 1855 ft 136 kts 66°
2026-04-30 09:55 50.43625 4.37101 1551 ft 145 kts 68°
2026-04-30 09:55 50.44023 4.38490 1422 ft 138 kts 64°
2026-04-30 09:55 50.44418 4.39879 1204 ft 141 kts 67°
2026-04-30 09:55 50.44824 4.41298 982 ft 141 kts 65°
2026-04-30 09:56 50.45227 4.42673 785 ft 139 kts 66°
2026-04-30 09:56 50.45626 4.44049 634 ft 137 kts 66°
2026-04-30 09:56 50.45988 4.45295 590 ft 99 kts 66°
2026-04-30 09:56 50.46200 4.46025 591 ft 63 kts 65°
2026-04-30 09:57 50.46366 4.46596 589 ft 44 kts 66°
2026-04-30 09:57 50.46431 4.46818 593 ft 15 kts 58°
2026-04-30 09:57 50.46520 4.46882 593 ft 13 kts 346°
2026-04-30 09:57 50.46568 4.46853 593 ft 3 kts 338°
2026-04-30 09:58 50.46581 4.46844 593 ft 1 kts 335°
2026-04-30 09:58 50.46596 4.46833 592 ft 4 kts 334°
2026-04-30 09:58 50.46632 4.46806 591 ft 8 kts 335°
2026-04-30 09:58 50.46684 4.46825 589 ft 8 kts 54°
2026-04-30 09:59 50.46733 4.46986 588 ft 9 kts 66°
2026-04-30 09:59 50.46784 4.47162 588 ft 9 kts 64°
2026-04-30 10:00 50.46853 4.47382 586 ft 11 kts 38°
2026-04-30 10:00 50.46921 4.47360 584 ft 8 kts 335°
2026-04-30 10:01 50.46942 4.47344 584 ft 0 kts 336°